This is the latest recevied weather packets stored in our database for station/object OK1FRN-6. If no packets are shown the sender has not sent any weather packets the latest 1 day(s).
| Time | Temp. | Humidity | Pressure | Rain* | Wind** | Luminosity | Snow |
|---|---|---|---|---|---|---|---|
| 1836274365 | 8.89° C | 78% | 1023.7 hPa | - | 0 m/s | - | - |
| 1778013071 | 16.67° C | 70% | 1006.7 hPa | - | 0.89 m/s, 277° | - | - |
| 1778012152 | 17.78° C | 63% | 1006.3 hPa | - | 1.34 m/s, 265° | - | - |
| 1778011845 | 17.78° C | 60% | 1006.5 hPa | - | 2.24 m/s, 252° | - | - |
| 1778011538 | 18.33° C | 59% | 1006.5 hPa | - | 0.89 m/s, 215° | - | - |
| 1778011232 | 18.33° C | 56% | 1006.1 hPa | - | 1.34 m/s, 232° | - | - |
| 1778010925 | 18.33° C | 54% | 1005.9 hPa | - | 0.45 m/s, 219° | - | - |
| 1778010619 | 18.89° C | 54% | 1005.4 hPa | - | 0.45 m/s, 333° | - | - |
| 1778010312 | 18.89° C | 54% | 1005 hPa | - | 0.45 m/s, 20° | - | - |
| 1778010006 | 18.89° C | 54% | 1005 hPa | - | 0 m/s | - | - |
| 1778009699 | 18.89° C | 53% | 1005 hPa | - | 0.45 m/s, 352° | - | - |
| 1778009393 | 18.89° C | 54% | 1005 hPa | - | 0.45 m/s, 300° | - | - |
| 1778009086 | 18.89° C | 54% | 1005 hPa | - | 0.45 m/s, 282° | - | - |
| 1778008780 | 18.89° C | 54% | 1005 hPa | - | 0.45 m/s, 275° | - | - |
| 1778007860 | 18.89° C | 54% | 1005.3 hPa | - | 0.89 m/s, 235° | - | - |
| 1778007554 | 19.44° C | 52% | 1004.8 hPa | - | 0.45 m/s, 278° | - | - |
| 1778007247 | 19.44° C | 52% | 1004.5 hPa | - | 0 m/s | - | - |
| 1778006941 | 19.44° C | 52% | 1004.4 hPa | - | 0 m/s | - | - |
| 1778006634 | 19.44° C | 51% | 1004.5 hPa | - | 0 m/s | - | - |
| 1778006327 | 19.44° C | 51% | 1004.5 hPa | - | 0 m/s | - | - |
| 1778006021 | 19.44° C | 51% | 1004.7 hPa | - | 0 m/s | - | - |
| 1778005715 | 20° C | 50% | 1004.7 hPa | - | 0 m/s | - | - |
| 1778005408 | 20° C | 50% | 1004.7 hPa | - | 0 m/s | - | - |
| 1778005101 | 20° C | 50% | 1004.7 hPa | - | 0 m/s | - | - |
| 1778004181 | 20.56° C | 50% | 1004.5 hPa | - | 0 m/s | - | - |
* Rain since midnight (hover to see other rain measurements)
** Current wind speed in m/s (hover to see current wind gust speed)